Temperature
22 21 21 22 27 30 30 31 31 30 30 29 28 28 29 29 28 27 23 22 21 21 20 20 20 20 20 20 19 19 19 19 19 19 19 19 19 19 19 19 18 18 18 18 18 18 18 18 18
21 21 22 26 30 30 30 31 30 30 29 28 28 28 28 27 26 24 22 21 21 21 20 20 20 20 20 19 19 19 19 19 19 19 19 19 19 19 18 18 18 18 18 18 18 18 18 18 18
21 21 25 30 30 30 30 30 30 29 28 28 28 28 27 26 25 24 22 22 21 21 20 20 20 20 20 19 19 19 19 19 19 19 19 19 19 18 18 18 18 18 18 18 18 18 18 18 18
21 24 27 30 30 30 30 30 30 29 29 28 28 28 26 24 24 23 22 21 21 21 20 20 20 20 20 19 19 19 19 19 19 19 19 18 18 18 18 18 18 18 18 18 18 18 18 18 18
23 27 29 30 30 30 30 30 29 30 29 28 28 28 26 23 23 22 22 21 21 20 20 20 20 20 19 19 19 19 19 19 19 19 19 18 18 18 18 18 18 18 18 18 18 18 18 18 18
26 29 29 30 30 30 30 29 29 30 29 28 28 28 26 23 23 22 22 21 21 20 20 20 20 19 19 19 19 19 19 19 19 18 18 18 18 18 18 18 18 18 18 18 18 18 18 18 18
27 29 29 30 30 30 30 29 29 30 29 29 28 28 26 24 22 22 21 21 21 20 19 19 19 19 19 19 19 19 19 18 18 18 18 18 18 18 18 18 18 18 18 17 17 17 18 18 17
27 29 29 30 29 30 29 29 29 29 29 27 27 28 27 24 22 22 21 21 20 20 19 19 19 18 18 18 19 19 19 18 18 18 18 18 18 18 18 17 17 17 17 17 17 17 17 17 17
26 29 29 30 30 30 29 29 28 28 28 27 27 27 26 23 23 22 21 21 20 20 19 19 19 18 18 18 18 18 18 18 18 18 18 18 17 17 17 17 17 17 17 17 17 17 17 17 17
27 28 29 30 30 30 29 29 28 28 28 28 27 25 24 23 23 22 22 21 20 20 19 19 19 18 18 18 18 18 18 18 17 17 17 17 17 17 17 17 17 17 17 17 17 17 17 17 17
28 28 29 29 28 28 28 28 28 28 28 28 27 25 24 23 22 22 22 21 21 20 19 19 19 18 18 18 18 18 17 17 17 17 17 17 17 17 17 17 17 17 17 17 17 17 17 17 17
28 28 28 28 27 27 28 28 28 28 28 26 26 25 24 23 23 22 22 21 21 20 19 19 19 18 18 18 18 18 17 17 17 17 17 17 17 17 17 17 17 17 17 17 16 16 16 16 16
27 28 27 27 27 27 27 27 27 27 26 25 25 24 24 23 23 22 22 21 20 20 19 19 19 19 18 18 18 18 17 17 17 17 17 17 17 17 17 16 16 16 16 17 16 16 16 16 16
28 27 27 27 27 27 28 28 27 27 26 25 24 24 23 23 22 22 21 21 20 20 19 19 19 19 18 18 18 18 17 17 17 17 17 17 17 16 16 16 16 16 16 16 16 16 16 16 16
26 27 28 28 28 28 28 28 28 27 26 25 25 24 23 22 22 21 21 21 20 19 19 19 19 18 18 18 18 18 17 17 17 17 17 17 16 16 16 16 16 16 16 16 16 16 16 16 16
27 27 27 28 28 28 27 28 28 26 26 25 25 24 23 22 22 21 21 20 20 19 19 19 18 18 18 18 18 18 17 17 17 17 17 17 16 16 16 16 16 16 16 16 16 16 16 16 16
27 27 28 28 28 28 28 28 28 26 26 25 25 24 23 22 22 21 21 20 20 19 19 19 18 18 18 18 17 17 17 17 17 17 16 16 16 16 16 16 16 16 16 16 16 16 16 16 16
27 27 27 28 28 28 27 28 28 26 26 26 25 24 23 22 21 21 20 19 19 19 19 19 19 18 18 17 17 17 17 17 17 17 17 16 16 16 16 16 16 16 16 16 16 15 15 16 16
27 27 27 27 28 27 27 27 27 26 26 26 25 24 23 22 21 20 19 19 19 19 19 19 18 18 18 17 17 17 17 17 17 16 16 16 16 16 16 16 16 16 15 15 15 15 15 15 15
26 26 27 27 27 26 27 27 27 27 26 25 25 24 23 22 21 20 19 19 18 19 19 18 18 18 18 17 17 17 17 17 16 16 16 16 16 16 16 16 16 15 15 15 15 15 15 15 15
25 26 26 26 26 26 26 26 26 27 26 25 24 24 23 22 21 20 19 18 18 18 18 18 18 18 18 17 17 17 17 16 16 16 16 16 16 16 16 16 15 15 15 15 15 15 15 15 15
25 26 26 26 26 26 26 26 27 26 26 25 24 24 23 22 21 20 19 18 18 18 18 18 18 18 18 17 17 16 16 16 16 16 16 16 16 16 16 15 15 15 15 15 15 15 15 15 15
26 26 26 26 26 26 26 26 27 26 25 25 25 23 22 22 21 20 19 19 18 18 18 18 18 18 17 17 17 16 16 16 16 16 16 16 15 15 15 15 15 15 15 15 15 15 15 15 15
26 25 25 25 26 25 26 26 26 27 25 25 24 23 22 21 21 20 19 19 18 18 18 18 18 17 17 17 17 16 16 16 16 16 16 15 15 15 15 15 15 15 15 15 15 15 15 15 15
25 25 24 24 25 25 26 25 25 26 25 24 24 23 21 21 20 20 19 19 18 18 18 18 17 17 17 17 17 16 16 16 16 16 15 15 15 15 15 15 15 15 15 15 15 15 15 15 15
25 25 24 24 25 26 25 25 25 25 24 23 22 22 21 20 20 19 19 19 18 18 18 17 17 17 17 17 16 16 16 16 15 15 15 15 15 15 15 15 15 15 15 15 15 15 15 15 15
25 25 26 25 25 25 25 25 25 24 24 23 22 21 21 20 19 19 18 18 18 18 18 17 17 17 16 16 16 16 16 16 15 15 15 15 15 15 15 15 15 14 14 14 14 14 14 14 14
25 25 25 24 23 23 25 25 25 24 23 23 22 21 21 20 19 19 18 18 17 17 17 17 17 16 16 16 16 16 15 15 15 15 15 15 14 14 14 14 14 14 14 14 14 14 14 14 14
24 24 24 24 24 24 24 25 25 24 23 22 22 21 20 20 19 19 18 18 17 17 17 16 16 16 16 16 15 15 15 15 15 14 14 14 14 14 14 14 14 14 14 14 14 14 14 14 14
24 24 24 23 23 24 24 24 23 23 23 22 21 20 19 19 19 18 18 17 17 16 16 16 16 16 15 15 15 15 15 14 14 14 14 14 14 14 14 14 14 14 14 14 14 14 14 13 13
Wind_Speed
9 7 6 5 6 3 2 4 3 4 4 4 3 3 4 5 5 5 6 9 9 12 13 14 12 11 11 11 11 11 11 11 10 10 10 9 9 9 10 10 11 11 10 9 9 9 10 10 10
6 5 5 5 4 2 3 3 3 4 4 3 3 2 3 5 5 6 8 10 11 12 13 13 13 11 11 11 11 11 11 11 10 10 9 9 9 10 10 10 10 10 10 9 9 9 9 9 9
6 6 5 4 2 0 3 4 4 4 3 1 2 3 3 4 4 5 8 12 11 12 12 13 13 11 10 10 10 10 11 11 10 9 9 9 9 9 10 10 10 9 9 9 9 9 8 9 8
5 5 5 5 2 1 2 3 2 3 2 1 1 3 3 4 3 6 11 12 12 11 12 14 12 11 10 10 10 10 10 10 10 9 9 9 9 10 10 9 9 9 9 8 8 8 8 8 7
6 5 6 4 3 2 1 1 0 2 2 2 1 2 4 5 6 9 12 12 11 11 11 14 12 10 10 10 10 10 10 10 10 9 9 9 10 10 9 9 9 8 7 7 7 7 7 7 7
5 5 6 5 4 2 1 0 2 2 2 3 2 2 4 6 7 9 11 11 11 11 11 13 13 10 10 10 10 10 10 10 10 9 9 9 10 9 9 9 8 7 7 6 6 6 6 5 5
7 6 6 5 3 3 1 0 2 2 2 2 1 2 4 7 8 10 11 11 11 10 10 11 12 12 10 9 10 9 10 10 9 9 9 8 8 8 8 7 7 6 6 6 6 5 6 5 4
6 6 7 6 5 3 1 1 1 2 1 1 2 2 3 8 10 11 11 10 10 10 10 9 9 10 10 11 10 9 9 10 9 9 9 8 8 8 7 7 6 5 5 5 6 5 5 5 5
6 8 8 6 5 3 1 2 1 1 2 2 3 2 2 11 13 12 11 10 10 9 9 9 9 9 9 9 11 10 10 9 9 9 8 7 6 7 7 6 6 5 5 5 6 6 5 5 6
7 9 7 4 4 4 3 4 3 4 4 4 3 3 7 12 13 13 13 12 12 11 10 9 9 8 8 7 8 8 8 8 6 6 6 5 4 4 5 8 6 5 5 5 6 6 6 6 4
8 9 6 5 4 5 6 5 5 6 6 4 3 4 9 12 13 13 12 12 11 11 10 9 8 8 7 6 6 5 5 6 6 6 5 4 4 5 5 5 6 5 5 4 6 6 3 3 2
9 9 8 7 5 6 7 6 6 7 6 4 3 4 9 12 12 12 12 11 10 10 10 9 9 8 7 6 5 5 4 4 4 6 5 4 3 3 3 2 3 3 3 2 3 2 3 2 2
12 9 9 9 8 8 8 8 7 7 5 2 3 5 9 10 11 11 10 10 10 10 10 9 9 8 7 6 5 4 4 4 5 5 5 4 3 3 3 2 2 2 2 2 2 2 2 1 1
8 9 10 10 9 8 9 8 8 6 4 4 5 6 8 9 9 9 9 9 10 9 10 9 9 9 8 7 5 5 5 4 5 5 5 4 3 3 3 3 2 2 1 1 1 2 2 1 1
8 10 11 11 10 8 8 10 9 6 5 6 6 6 7 8 8 8 8 9 9 9 9 9 9 9 8 8 7 5 5 5 4 4 5 5 4 4 2 2 2 2 2 2 2 2 2 2 1
10 11 12 9 8 8 10 10 5 5 6 6 6 6 7 7 8 7 8 8 9 9 9 9 8 9 9 7 6 5 5 5 4 4 5 5 5 4 4 3 2 2 2 1 1 2 2 1 1
11 12 12 8 7 7 10 9 5 5 7 7 7 6 7 7 7 7 7 8 9 9 10 10 9 9 9 7 6 5 5 4 4 5 5 5 6 5 4 3 2 3 2 1 2 1 1 1 1
10 12 10 9 6 8 10 10 6 6 8 8 8 7 7 8 8 7 7 8 8 9 9 9 9 9 8 7 5 5 5 5 4 4 4 5 6 5 4 3 3 3 3 2 2 2 2 2 2
10 12 12 9 5 8 10 10 8 6 8 8 8 8 8 8 7 7 8 8 8 9 9 9 9 9 7 6 6 6 6 5 5 5 5 5 5 5 4 3 3 3 3 3 3 3 4 3 2
12 13 12 8 5 8 10 10 8 7 8 7 8 8 8 7 7 8 9 9 9 9 9 9 9 9 9 7 5 5 4 4 4 4 5 5 5 5 5 3 3 3 3 4 4 4 4 3 3
14 14 12 9 7 9 10 12 9 8 7 6 7 7 8 8 8 9 9 10 9 9 9 8 8 8 8 7 6 5 4 4 5 5 5 5 5 5 4 4 4 3 4 3 4 4 5 4 3
14 11 11 10 10 9 8 10 8 7 8 7 7 7 7 7 7 9 10 10 10 9 8 8 8 8 8 8 7 7 6 5 5 4 4 4 4 4 4 4 4 3 3 3 4 4 4 5 4
12 8 10 11 12 12 11 11 8 8 8 7 7 6 6 7 8 9 9 10 10 9 8 8 8 8 8 8 8 7 6 4 4 4 4 4 4 4 4 4 3 3 3 3 3 3 4 4 5
10 8 9 11 12 14 13 11 8 6 7 6 6 5 5 6 7 7 8 9 9 9 8 8 8 8 8 9 8 7 6 5 4 4 4 4 3 3 3 3 4 4 3 3 4 4 5 4 5
11 10 8 10 11 12 8 9 6 1 2 4 5 5 5 6 7 8 8 8 8 9 8 8 8 8 8 9 8 7 6 6 5 4 4 3 3 3 3 4 4 4 4 4 4 4 4 5 5
14 15 11 9 10 8 8 8 4 2 1 2 3 4 5 6 7 7 8 8 8 9 8 8 8 8 8 9 8 7 7 5 5 4 3 3 3 2 3 4 4 4 4 4 4 4 4 4 5
12 14 14 12 11 11 8 6 4 3 3 3 3 4 4 5 7 7 8 8 8 8 8 8 8 8 8 8 8 7 6 5 5 4 4 3 3 3 3 3 3 3 3 4 4 3 4 4 4
12 12 10 12 11 12 11 10 7 5 4 3 3 3 4 5 6 6 7 7 7 7 7 7 8 8 8 8 7 6 6 6 5 4 4 3 3 2 3 3 3 3 3 3 4 3 3 3 3
11 12 11 12 12 11 11 6 1 4 4 4 3 3 4 5 6 6 6 6 6 6 7 7 7 7 7 7 7 6 6 6 5 4 4 4 3 3 3 3 3 3 3 3 3 3 2 3 3
11 13 13 12 12 12 11 5 2 2 3 3 3 3 3 4 5 6 6 6 6 6 7 7 7 7 7 7 7 6 6 6 5 5 5 4 4 4 4 3 3 3 3 3 3 3 3 3 3
Wind_Direction
192 197 220 233 236 208 105 88 69 80 76 59 39 19 17 24 18 62 104 132 134 138 138 145 143 145 144 142 141 139 138 136 136 135 136 133 132 132 133 130 128 126 126 126 127 136 137 135 135
192 201 228 240 254 180 114 89 91 73 73 80 79 55 53 58 55 97 127 136 143 139 142 145 142 147 145 144 142 141 141 140 140 139 140 135 132 132 130 128 128 129 129 127 127 132 137 136 135
201 228 251 247 249 257 95 81 89 95 102 101 85 56 41 66 89 117 127 146 147 142 142 138 145 146 146 145 144 141 141 141 142 142 141 136 133 130 130 130 130 130 130 130 129 131 134 138 140
219 226 238 245 198 87 46 69 87 138 130 123 112 97 88 71 98 118 134 150 148 145 142 139 148 147 146 146 144 144 139 140 140 139 138 134 132 130 122 125 127 127 127 128 128 132 136 140 143
238 247 232 213 193 119 93 38 208 189 162 141 154 107 106 98 105 126 144 152 150 145 141 139 148 149 147 145 144 143 142 139 134 133 135 133 126 124 121 120 122 124 126 128 128 128 135 142 146
234 241 233 213 176 147 127 174 223 212 170 155 163 140 113 124 134 141 148 154 149 145 143 141 151 152 151 146 142 140 138 136 132 129 125 126 128 127 123 121 123 125 126 129 131 128 122 133 141
253 247 242 231 202 178 127 332 247 242 193 170 188 175 141 145 141 146 150 152 149 148 149 153 157 159 157 150 142 141 141 138 134 130 126 126 128 130 128 128 127 128 126 125 127 123 119 122 118
260 252 234 228 224 201 157 258 279 266 211 124 217 221 168 151 148 149 151 153 152 154 155 157 158 159 162 157 149 144 143 144 142 138 135 136 141 140 139 139 127 125 123 126 124 120 119 124 129
244 242 233 227 232 222 203 256 274 266 208 215 238 276 120 143 152 155 156 161 161 162 163 162 161 162 163 156 152 156 153 153 156 147 147 160 149 144 146 117 125 133 137 141 136 133 140 159 160
229 240 238 248 266 269 262 272 275 235 226 226 215 162 147 158 167 170 172 173 172 172 172 167 167 165 165 159 157 164 161 155 162 149 155 156 139 142 134 133 139 138 147 154 151 152 171 195 164
230 244 249 247 268 278 269 269 262 246 246 252 251 189 171 177 181 182 180 180 178 175 172 170 169 168 168 164 163 161 158 155 160 152 159 159 163 159 154 151 153 151 159 152 153 177 171 159 144
234 241 253 255 259 264 270 266 256 254 268 290 265 201 182 187 188 189 186 182 180 178 177 173 172 170 174 167 163 167 164 162 160 154 166 162 164 161 142 146 140 148 139 138 159 149 135 149 167
232 239 242 249 253 257 260 257 257 256 256 250 206 186 187 191 193 193 189 184 181 179 179 177 175 172 172 169 177 170 173 170 160 158 160 168 168 166 155 140 135 127 133 159 159 147 138 164 174
239 245 246 247 246 243 248 251 242 243 226 200 182 187 193 193 194 189 186 188 185 182 180 173 175 175 175 174 177 174 178 172 171 163 165 177 171 157 160 151 139 133 141 158 182 161 175 178 136
243 245 242 235 235 234 246 245 233 228 215 206 195 193 191 190 187 188 188 187 184 181 178 175 175 176 180 181 184 182 184 177 177 165 170 180 178 161 165 159 162 151 154 171 196 191 186 188 187
229 235 236 220 223 224 237 248 216 199 212 218 208 198 190 189 188 187 183 186 181 180 177 177 178 175 179 185 188 190 184 178 178 175 169 176 178 177 184 182 173 160 180 196 204 216 194 183 205
221 232 235 217 210 227 237 255 229 214 222 224 217 208 198 191 192 189 184 183 180 177 176 176 179 177 180 183 186 186 179 183 182 179 174 175 183 190 200 190 168 191 194 224 243 199 235 209 228
229 239 237 236 215 239 245 252 250 236 230 226 221 214 203 200 197 185 179 179 176 173 175 179 178 179 180 182 186 191 183 184 187 185 178 180 187 195 209 195 190 207 207 209 219 225 229 245 249
257 252 251 247 249 252 251 256 254 239 231 228 223 214 208 206 191 175 174 173 170 171 174 179 182 178 183 187 191 190 188 188 188 187 182 190 195 196 211 219 193 217 216 223 223 229 219 231 246
245 249 250 249 245 259 259 258 250 232 231 231 226 216 209 200 186 176 173 174 175 175 178 181 183 183 188 190 195 196 188 189 188 185 182 192 197 206 206 221 217 211 220 221 231 238 249 234 225
236 246 251 255 255 243 260 251 232 224 222 219 222 216 205 196 190 181 178 178 179 180 182 184 186 187 190 185 186 180 177 184 186 190 190 194 197 200 220 215 227 225 230 220 227 236 245 242 221
241 239 252 253 253 248 241 262 229 214 212 216 217 208 197 192 191 187 183 181 183 184 179 179 184 187 186 185 190 189 190 192 190 193 186 189 196 206 213 215 217 233 234 229 234 236 246 247 240
243 243 245 248 250 258 242 254 238 205 221 221 215 212 205 200 194 189 187 186 184 181 178 176 178 183 187 190 189 195 198 191 185 184 176 192 191 207 213 212 216 225 233 233 247 249 251 244 250
234 232 234 240 244 247 244 245 253 222 231 225 213 207 204 201 194 187 183 180 180 178 179 177 177 182 185 189 189 195 194 191 187 188 183 193 191 201 208 216 223 224 229 225 234 243 239 248 252
219 226 227 227 230 244 228 238 251 224 214 225 219 208 197 194 187 184 181 178 179 179 180 179 180 183 186 188 188 187 191 191 192 199 188 202 197 200 206 223 228 227 224 227 232 235 244 240 240
216 223 235 242 243 243 213 235 223 166 204 216 202 195 181 181 181 184 185 183 183 182 182 180 180 183 184 186 183 182 186 193 190 197 207 197 206 212 216 224 223 227 225 227 230 235 230 229 233
219 225 239 256 263 257 238 232 207 210 202 190 182 181 182 186 180 182 184 185 185 183 184 181 180 182 183 182 179 179 181 184 179 180 199 202 205 211 211 223 221 219 221 228 228 235 233 227 229
233 229 229 237 244 248 242 235 228 203 217 206 196 195 190 185 183 180 182 182 182 182 180 178 180 180 179 179 177 175 177 178 178 184 187 196 201 204 202 208 210 213 216 214 222 222 219 223 232
212 217 228 237 243 250 254 244 212 203 211 214 215 210 201 191 188 185 180 177 177 176 176 176 177 175 174 175 171 170 172 172 177 185 189 193 197 195 202 211 206 204 205 205 208 221 216 219 228
227 227 226 234 239 245 259 254 92 191 196 204 207 204 197 186 181 178 173 173 176 177 175 173 175 175 173 172 171 170 171 168 175 181 184 187 191 198 205 211 208 205 206 208 208 221 224 227 233
Height
1506 1506 1507 1509 1501 1491 1491 1488 1487 1489 1491 1495 1496 1496 1494 1495 1497 1506 1508 1507 1508 1509 1509 1510 1511 1513 1514 1515 1516 1517 1518 1519 1520 1520 1521 1522 1522 1522 1523 1524 1525 1526 1527 1528 1529 1529 1530 1531 1532
1508 1508 1509 1505 1492 1494 1493 1487 1489 1491 1495 1497 1498 1498 1497 1499 1503 1506 1507 1507 1509 1510 1510 1511 1512 1513 1515 1516 1517 1518 1519 1520 1521 1521 1522 1522 1523 1523 1524 1525 1526 1527 1528 1528 1529 1530 1531 1532 1533
1508 1508 1508 1495 1490 1491 1491 1488 1490 1494 1497 1497 1498 1499 1500 1503 1505 1507 1507 1508 1509 1511 1512 1511 1513 1514 1515 1517 1518 1519 1520 1521 1521 1522 1523 1523 1524 1524 1525 1526 1526 1527 1528 1529 1530 1531 1532 1533 1534
1509 1509 1504 1494 1492 1489 1488 1490 1493 1494 1496 1498 1498 1499 1503 1506 1507 1507 1507 1508 1511 1512 1513 1512 1514 1515 1516 1517 1518 1520 1521 1521 1522 1523 1523 1524 1524 1525 1526 1527 1528 1528 1529 1530 1531 1532 1533 1534 1535
1509 1504 1495 1493 1491 1489 1490 1492 1494 1493 1495 1497 1498 1499 1503 1507 1506 1507 1507 1509 1511 1512 1513 1513 1514 1516 1517 1518 1519 1520 1521 1522 1523 1523 1524 1525 1525 1526 1527 1528 1529 1529 1530 1531 1532 1532 1533 1534 1535
1507 1499 1494 1494 1490 1490 1491 1493 1494 1493 1494 1497 1498 1499 1503 1506 1507 1507 1508 1510 1512 1513 1514 1514 1515 1516 1518 1519 1520 1521 1522 1523 1524 1524 1524 1525 1526 1527 1528 1529 1530 1530 1531 1532 1533 1533 1533 1534 1535
1504 1495 1492 1490 1490 1490 1492 1494 1494 1493 1494 1497 1499 1499 1502 1506 1507 1507 1509 1510 1512 1513 1514 1515 1516 1517 1518 1519 1521 1522 1523 1524 1524 1525 1526 1526 1527 1528 1529 1530 1531 1531 1532 1532 1533 1533 1534 1534 1534
1503 1495 1491 1489 1491 1490 1492 1494 1495 1495 1496 1499 1500 1498 1500 1505 1506 1507 1509 1510 1512 1513 1515 1516 1517 1518 1519 1520 1521 1522 1523 1524 1525 1526 1526 1527 1528 1529 1529 1530 1531 1531 1532 1532 1533 1533 1534 1534 1534
1503 1496 1491 1488 1489 1489 1492 1493 1495 1496 1497 1498 1499 1500 1501 1503 1505 1507 1509 1510 1512 1513 1514 1516 1517 1519 1520 1521 1521 1523 1524 1525 1526 1526 1527 1528 1529 1530 1530 1531 1531 1531 1531 1532 1533 1533 1533 1534 1535
1499 1493 1489 1487 1488 1489 1491 1493 1494 1494 1495 1496 1498 1499 1500 1502 1504 1505 1507 1509 1511 1513 1514 1515 1517 1518 1520 1522 1522 1523 1525 1525 1526 1527 1528 1529 1529 1530 1531 1530 1531 1530 1531 1532 1532 1532 1533 1534 1535
1495 1491 1488 1490 1492 1492 1492 1492 1493 1492 1492 1494 1496 1498 1499 1501 1503 1504 1506 1508 1510 1512 1514 1515 1517 1518 1520 1521 1523 1524 1525 1525 1526 1527 1527 1529 1530 1531 1531 1532 1531 1531 1532 1532 1532 1533 1534 1535 1535
1493 1491 1491 1491 1493 1493 1492 1491 1492 1492 1492 1494 1495 1496 1497 1499 1501 1503 1505 1507 1509 1511 1513 1515 1516 1517 1519 1521 1522 1523 1524 1525 1526 1526 1527 1529 1530 1531 1532 1532 1532 1532 1533 1532 1533 1533 1534 1533 1534
1491 1490 1491 1492 1492 1492 1492 1491 1491 1491 1492 1493 1494 1495 1496 1497 1499 1502 1504 1506 1508 1510 1512 1513 1515 1516 1517 1519 1521 1522 1523 1524 1525 1525 1526 1528 1529 1530 1531 1531 1532 1532 1533 1533 1533 1534 1533 1533 1534
1489 1489 1489 1489 1489 1490 1489 1488 1489 1489 1491 1491 1492 1493 1494 1496 1498 1500 1502 1504 1507 1509 1511 1512 1513 1514 1516 1518 1520 1521 1522 1523 1525 1525 1526 1527 1528 1529 1530 1531 1531 1532 1532 1533 1533 1533 1533 1533 1533
1490 1488 1485 1484 1485 1486 1487 1485 1484 1487 1489 1490 1490 1492 1493 1495 1497 1498 1500 1502 1505 1507 1509 1510 1512 1513 1515 1517 1519 1521 1522 1523 1524 1525 1525 1526 1527 1528 1529 1530 1531 1531 1531 1532 1532 1533 1533 1533 1533
1486 1485 1483 1478 1481 1483 1486 1483 1480 1484 1487 1487 1489 1490 1492 1493 1495 1497 1499 1501 1503 1505 1506 1508 1511 1512 1514 1516 1517 1520 1521 1522 1522 1524 1524 1525 1526 1527 1528 1529 1530 1530 1531 1532 1532 1532 1533 1532 1532
1481 1482 1479 1476 1478 1479 1480 1479 1477 1482 1484 1485 1487 1488 1490 1491 1494 1495 1497 1499 1501 1502 1504 1506 1509 1510 1513 1514 1516 1518 1519 1520 1521 1523 1524 1524 1525 1526 1527 1528 1528 1529 1530 1531 1531 1531 1532 1532 1532
1479 1477 1476 1476 1474 1477 1477 1476 1476 1479 1481 1482 1484 1486 1488 1489 1491 1493 1495 1497 1499 1500 1502 1504 1506 1509 1511 1513 1514 1516 1517 1519 1520 1521 1522 1523 1524 1525 1526 1527 1527 1528 1529 1529 1530 1530 1530 1530 1531
1474 1476 1476 1473 1472 1475 1475 1474 1474 1476 1478 1479 1481 1483 1485 1487 1490 1491 1493 1495 1497 1498 1500 1502 1504 1506 1509 1511 1513 1514 1515 1517 1518 1519 1520 1521 1522 1523 1524 1526 1526 1526 1527 1528 1529 1529 1530 1530 1530
1477 1477 1475 1472 1472 1475 1473 1472 1470 1472 1474 1476 1478 1480 1482 1485 1487 1489 1491 1493 1494 1496 1498 1500 1502 1504 1506 1509 1511 1512 1514 1515 1516 1518 1518 1519 1521 1522 1523 1523 1525 1525 1526 1526 1527 1527 1528 1529 1529
1476 1476 1473 1473 1471 1471 1473 1471 1468 1468 1471 1474 1476 1477 1479 1481 1484 1486 1488 1490 1492 1493 1495 1498 1499 1502 1504 1506 1509 1510 1512 1513 1515 1516 1517 1518 1519 1520 1521 1522 1523 1523 1524 1525 1525 1525 1526 1527 1527
1474 1469 1471 1473 1474 1471 1472 1473 1464 1464 1467 1470 1473 1474 1477 1479 1482 1483 1485 1487 1489 1491 1493 1495 1497 1499 1502 1504 1506 1508 1509 1511 1513 1514 1515 1516 1517 1518 1519 1519 1520 1521 1522 1522 1523 1523 1524 1524 1525
1467 1466 1469 1470 1471 1471 1467 1472 1461 1460 1465 1466 1469 1472 1474 1477 1479 1481 1483 1485 1487 1489 1491 1493 1495 1497 1499 1501 1503 1505 1508 1509 1511 1511 1512 1514 1515 1516 1517 1517 1518 1518 1519 1520 1520 1520 1521 1522 1523
1465 1468 1469 1468 1467 1476 1465 1468 1464 1456 1459 1462 1466 1469 1472 1474 1477 1479 1481 1483 1485 1487 1489 1491 1493 1495 1497 1499 1500 1502 1505 1507 1508 1509 1510 1512 1513 1513 1514 1515 1515 1516 1517 1517 1518 1518 1518 1519 1519
1465 1471 1475 1476 1474 1469 1458 1464 1462 1454 1457 1461 1464 1467 1469 1471 1474 1476 1479 1480 1483 1485 1487 1489 1491 1493 1495 1496 1498 1500 1502 1504 1506 1507 1508 1509 1511 1511 1512 1513 1513 1514 1514 1515 1515 1516 1516 1516 1516
1461 1464 1472 1477 1471 1461 1459 1461 1456 1455 1459 1461 1463 1466 1468 1470 1472 1474 1476 1478 1481 1483 1485 1487 1489 1490 1492 1494 1496 1497 1499 1502 1504 1505 1506 1507 1509 1510 1510 1511 1511 1512 1512 1513 1513 1514 1514 1514 1514
1458 1459 1455 1461 1461 1464 1456 1454 1455 1455 1457 1460 1462 1464 1466 1468 1470 1472 1475 1476 1478 1480 1482 1484 1486 1488 1489 1491 1493 1495 1497 1499 1501 1502 1503 1505 1506 1507 1508 1508 1509 1510 1510 1511 1511 1511 1511 1511 1512
1452 1453 1457 1462 1471 1470 1458 1455 1453 1455 1456 1457 1460 1462 1465 1467 1469 1471 1473 1475 1477 1478 1480 1482 1483 1485 1487 1489 1491 1492 1494 1496 1498 1500 1501 1502 1503 1505 1506 1506 1507 1508 1508 1508 1509 1509 1509 1509 1509
1455 1455 1455 1454 1454 1463 1464 1456 1445 1451 1454 1457 1459 1462 1464 1465 1467 1469 1471 1473 1475 1476 1478 1479 1481 1483 1484 1486 1488 1490 1492 1494 1496 1497 1498 1499 1501 1502 1503 1504 1505 1505 1506 1506 1507 1507 1507 1507 1507
1449 1450 1453 1460 1459 1455 1456 1457 1448 1451 1454 1457 1459 1461 1463 1464 1466 1468 1470 1472 1473 1474 1475 1477 1479 1481 1482 1484 1486 1488 1490 1492 1493 1495 1496 1497 1498 1500 1501 1502 1502 1503 1504 1504 1505 1505 1505 1505 1505